Location: *
(38.9800°N, 16.0500°E)
Time: 18:35:50
(UTC+00:00)

CZ-2C R/B - Pass Details

Date: 07 April 2020
Orbit: 669 x 783 km, 98.2° (Epoch: 05 June)

Event Time Altitude Azimuth Distance (km) Brightness Sun altitude
Rises 02:16:11 0° 26° (NNE) 3,023 6.5 -25.1°
Reaches altitude 10° 02:18:47 10° 41° (NE) 2,101 5.7 -24.7°
Maximum altitude 02:22:31 24° 95° (E) 1,368 4.3 -24.1°
Drops below altitude 10° 02:26:14 10° 150° (SSE) 2,098 4.7 -23.5°
Enters shadow 02:27:42 - 159° (SSE) 2,604 5.2 -23.2°
